STARLINK-5195, 54051

Orbit data source: Space-Track

STARLINK-5195, 54051 is a payload satellite owned by SpaceX/Seattle (US) in LEO that was launched on Thu, 20 Oct 2022 UTC via an FALCON 9 launch vehicle from the Air Force Eastern Test Range (AFETR). Payload-class satellites include a variety of spacecraft equipped with specific instruments for various scientific and technological missions. These include communications satellites like Starlink; space stations such as the ISS; scientific satellites like the Hubble; Earth observation satellites from companies like Planet Labs, Umbra, and HawkEye 360; GPS; miniature CubeSats for education and research; and military/defense satellites.

Loading next visibility...
Identifier
54051, 2022-136A
Orbit
LEO
Country
Flag of USUS
Related business
Manufacturer
SpaceX/Seattle
Mission
Operational Commercial Communications
Bus & Motor
STARLINK, Unknown motor
Mass
305 kg wet, ~290 kg dry
Launch date (UTC)
2022-10-20 (3 years ago)
Launch vehicle
FALCON 9
Launch site
Air Force Eastern Test Range (AFETR)
Object type
Payload
Rocket body
Debris
Shape & HBR
Box + 1 Pan, 4.4 m
Radar Cross Section
13.562 m², Large (>1 m²)

Expand to show TLE details & history
Last TLE update: 21 hours ago

TLE from 21 hours ago
0 STARLINK-5195
1 54051U 22136A   25260.62527408 -.00000800  00000-0 -32180-4 0  9996
2 54051  53.2196  41.2849 0001274  89.6726 270.4413 15.08839319160716
Epoch: 2025-09-17T15:00Z
TLE epoch observation values (Epoch: 2025-09-17T15:00:23.68Z)
Latitude
0.00004°
Longitude
179.38773°
Altitude
540.636 km
Speed
7.593 km/s
True Right ascension
02h 45m 08s
True Declination
0° 00' 00"
Sunlit
Object was in full shadow at epoch
Visualization orbit readout
Latitude
Unknown
Longitude
Unknown
Altitude
Unknown
Speed
Unknown
Apparent Right ascension
Unknown
Apparent Declination
Unknown
Sunlit
N/A
Visualization observer readout
Local Sidereal Time
05:01:20
Azimuth
Unknown
Elevation
Unknown
Doppler factor
Unknown
Orbital elements
Apogee altitude
540.871 km
Perigee altitude
539.109 km
Semi-major axis
6,918.127 km
Eccentricity
0.00013
Inclination
53.2196°
RAAN
41.2849°
Arg. of periapsis
89.6726°
True anomaly
270.4267°
Mean anomaly
270.4413°
Eccentric anomaly
270.434°
Mean motion
3.7719 °/min
Orbital period
95.44 mins
BSTAR
-0.00003218
Loading maneuver chart data...
Computing Atmospheric mass density...
Loading historical data...
Loading historical data...
Loading historical data...
Loading historical data...
Loading historical data...
Loading historical data...
Loading historical data...

Documentation

Showing up to 5 results
|